Tracking 28790 objects as of 19-Apr-2024
HD Live streaming from Space Station
objects crossing your sky now

TITAN 3C TRANSTAGE DEB

Track TITAN 3C TRANSTAGE DEB now!


NORAD ID: 43284
Int'l Code: 1969-013E
Perigee: 36,034.0 km
Apogee: 37,302.7 km
Inclination: 0.8 °
Period: 1,481.0 minutes
Semi major axis: 43039 km
RCS: Unknown
Launch date: February 9, 1969
Source: United States (US)
Launch site: AIR FORCE EASTERN TEST RANGE (AFETR)

Note: This is SATELLITE DEBRIS
Your satellite tracking list
Your tracking list is empty




NASA's NSSDC Master Catalog

Two Line Element Set (TLE):
1 43284U 69013E   24109.19070414 -.00000078  00000-0  00000+0 0  9997
2 43284   0.7981 286.3512 0147388 182.9200 252.3134  0.97230844 21615
Source of the keplerian elements: AFSPC